Theta_e
318 320 321 323 326 328 327 328 327 323 327 324 318 322 319 318 322 319 319 319 317 315 315 316 316 316 318 318 317 317 315 316 317 325 328 320 319 322 320 318 319 323 327 329 327 325 322 318 320 327 330 329 327 326 327 330 331 331 333 332 332 331 331 333 332 332 331 333 334 334 335 336 336 336 336 335 335 335 334 333 331 330 329 328 326 325 324 326 326 327 325 323 322 320 319 319 318
317 320 323 325 327 330 327 327 333 331 329 323 318 321 316 319 321 319 321 319 317 314 315 316 315 315 315 315 315 316 316 317 317 320 320 319 320 320 320 318 317 319 321 323 323 321 318 313 312 318 326 329 328 325 326 329 331 332 331 331 332 332 332 333 334 333 331 331 331 332 333 334 335 335 335 334 335 335 335 334 333 332 331 332 330 327 324 323 323 325 326 326 326 322 319 318 319
316 320 321 324 328 327 328 327 331 332 331 324 321 323 317 318 320 320 320 315 315 314 315 315 314 313 313 314 314 316 316 316 318 319 318 319 318 317 318 317 317 318 317 317 316 316 315 313 312 312 316 322 326 327 327 328 330 331 331 331 331 332 332 333 334 334 333 332 331 332 331 332 334 334 334 334 335 334 334 334 333 332 332 332 332 331 328 326 323 322 325 327 328 324 319 317 317
317 322 321 324 327 326 335 334 333 334 329 324 321 324 322 321 322 320 316 313 315 315 315 314 313 312 313 315 313 314 315 315 318 317 314 313 314 314 314 314 315 316 316 315 315 315 315 315 315 313 313 315 319 323 326 327 328 329 330 330 330 332 332 332 333 333 334 333 333 333 332 333 333 334 335 335 334 333 333 334 334 332 331 331 331 332 331 330 327 325 326 328 328 325 322 318 316
318 321 321 325 327 324 331 329 331 333 325 325 322 322 328 326 322 318 314 314 314 315 314 312 312 311 312 312 312 313 313 313 314 314 310 308 310 311 312 312 313 314 314 314 314 315 315 315 315 315 315 314 315 316 319 321 323 324 326 327 327 328 329 331 331 332 333 333 333 334 333 334 334 334 334 334 334 333 334 333 333 332 331 330 329 331 331 331 329 328 328 330 331 329 326 321 317
321 322 322 323 323 321 325 322 323 326 321 328 324 319 326 322 317 314 313 314 314 315 314 312 312 311 311 310 310 311 312 313 312 312 309 307 308 308 310 310 311 312 312 312 312 312 312 313 313 314 314 315 314 314 315 316 317 318 320 323 324 325 326 328 330 331 332 333 334 334 334 334 334 334 334 334 333 333 333 333 332 331 331 329 328 329 331 331 330 329 328 330 332 332 331 328 323
321 322 323 322 322 319 326 327 323 324 318 320 324 321 319 315 313 313 314 314 314 314 313 313 312 312 311 310 311 310 311 311 309 310 309 307 307 307 308 308 309 309 309 309 309 309 309 310 310 311 312 312 313 314 314 314 315 315 316 318 321 323 325 326 328 328 329 331 332 333 334 334 334 334 334 334 333 333 332 332 332 331 330 329 328 328 328 329 330 329 328 329 331 332 333 332 331
320 321 321 325 331 327 330 327 322 325 317 312 318 318 314 313 313 313 314 313 313 313 313 312 312 313 311 310 310 309 309 309 308 308 308 307 307 307 307 307 308 307 307 307 306 307 307 307 308 308 309 309 310 310 311 313 314 315 315 316 317 320 323 325 326 327 327 328 329 331 332 333 333 333 333 334 334 333 332 331 331 331 331 330 328 327 325 325 327 329 329 328 329 331 332 332 332
320 322 320 325 333 330 328 321 317 320 318 315 315 314 314 314 313 313 313 312 313 312 312 311 312 314 310 308 309 307 307 307 307 307 307 308 308 307 307 307 306 306 306 305 305 305 306 306 305 306 306 306 307 307 308 309 310 312 313 314 315 317 319 321 324 326 327 327 327 328 330 331 332 333 333 333 334 334 333 332 331 331 331 331 329 327 324 324 325 327 329 329 329 330 330 331 330
319 322 319 326 332 327 322 319 321 319 316 316 313 314 314 313 313 312 314 313 313 312 311 312 311 311 309 307 308 307 306 306 306 307 307 307 307 306 306 305 305 305 305 305 305 305 305 305 305 305 305 305 305 306 306 306 307 307 308 310 312 313 315 317 319 322 324 326 326 326 327 328 329 331 332 332 333 333 333 333 332 331 331 331 330 328 325 325 325 326 329 329 330 330 329 330 330
320 320 320 329 331 324 322 322 323 319 317 316 313 314 313 312 313 311 313 313 312 311 310 312 310 308 307 307 307 307 306 305 306 306 306 306 305 304 304 304 304 305 305 305 305 305 305 305 305 305 305 305 305 306 305 305 305 305 306 306 307 308 310 312 314 317 319 321 323 324 324 325 326 326 328 330 332 332 333 332 332 332 332 330 329 329 326 325 324 324 327 329 330 330 329 329 329
319 322 334 339 330 323 324 324 320 318 321 321 314 314 314 313 314 311 311 312 311 311 310 311 310 308 307 306 306 306 305 305 306 306 305 304 304 303 304 304 304 305 305 305 305 305 304 304 304 304 304 303 304 304 305 305 305 305 305 305 305 305 306 307 309 311 313 316 318 320 321 321 322 322 323 326 328 330 331 331 332 332 332 331 330 328 326 326 324 321 322 327 329 329 329 329 329
318 322 338 334 322 321 322 321 320 321 322 320 314 313 314 312 313 311 311 311 310 311 311 311 311 310 308 306 305 304 305 305 306 305 304 303 303 304 304 304 304 304 304 304 304 304 303 303 302 302 302 301 302 302 302 303 304 304 305 305 306 305 305 305 305 306 307 310 312 314 317 318 319 319 320 321 322 324 326 328 330 330 331 331 331 329 327 326 325 321 318 321 327 330 329 328 328
318 319 330 327 320 321 320 319 319 321 318 317 315 312 313 311 311 311 311 313 311 311 311 311 310 311 308 305 304 304 304 305 305 304 303 303 303 304 304 304 304 304 304 304 304 303 302 302 301 301 301 301 301 301 301 301 301 302 303 304 304 305 306 305 305 305 305 306 306 308 311 313 315 317 318 318 319 319 320 322 324 326 327 328 329 329 328 327 326 324 320 317 320 328 330 329 328
317 318 331 333 326 321 318 320 322 324 318 316 315 311 312 311 310 311 312 314 312 310 311 310 310 311 310 307 306 304 304 305 304 303 302 303 303 304 304 304 304 304 303 303 303 302 302 301 301 301 301 301 301 301 301 300 301 300 301 301 301 303 304 305 305 305 305 305 305 305 306 307 310 312 315 316 317 318 318 319 320 321 321 322 324 325 327 327 326 324 323 320 317 322 329 330 329
319 321 335 335 326 321 317 319 322 324 318 314 313 312 313 311 311 311 311 312 311 309 310 310 309 310 310 309 308 305 304 304 303 302 302 303 303 303 304 303 303 303 303 303 302 301 301 301 301 301 300 300 301 301 301 300 300 300 300 300 300 300 301 302 303 304 305 305 305 305 305 305 305 306 309 312 314 316 317 318 318 319 319 319 319 320 322 324 324 322 323 323 320 318 322 327 329
318 325 341 335 325 320 317 319 320 322 320 314 311 312 314 312 310 310 310 310 310 309 309 309 308 309 309 307 307 305 304 303 302 302 302 303 303 303 303 303 303 303 303 302 301 301 300 300 300 300 300 300 300 300 300 300 300 300 300 300 300 299 299 299 300 301 301 302 303 303 304 305 305 305 305 306 308 311 313 316 317 318 319 319 319 319 319 319 320 320 320 322 322 320 321 324 327
321 333 336 326 323 319 319 321 317 317 318 314 312 312 314 315 310 308 309 308 307 308 307 307 307 307 307 306 305 304 304 303 302 302 303 304 304 304 304 303 303 303 302 301 301 300 300 300 300 299 299 299 299 299 299 299 299 300 300 300 300 299 299 299 299 299 299 300 300 301 301 302 303 303 303 303 304 305 307 309 312 315 317 319 320 320 319 318 316 317 320 322 322 321 322 324 326
322 332 328 323 326 318 315 317 313 314 316 313 312 312 313 314 310 309 311 306 305 306 304 304 305 305 305 305 304 303 303 302 302 302 303 304 304 304 303 303 302 302 301 300 300 300 300 299 299 299 299 299 299 298 298 298 298 299 299 299 299 299 299 299 299 299 299 299 299 299 299 299 300 300 301 301 302 302 303 303 305 308 312 315 318 320 320 320 319 319 321 323 323 321 321 323 325
317 323 324 327 325 315 312 314 313 314 315 313 311 311 312 312 311 310 310 306 304 305 304 303 303 303 303 303 303 303 302 302 302 303 303 304 303 303 302 302 301 300 300 299 299 299 299 299 299 299 298 298 298 298 298 298 298 298 298 298 298 299 299 299 299 299 299 298 298 298 298 298 298 298 299 299 300 301 301 302 302 303 305 308 312 316 319 321 322 322 322 323 323 323 322 322 326
315 318 323 322 315 314 314 313 314 314 314 314 311 311 311 311 311 310 308 309 308 305 306 308 307 305 304 303 303 302 302 302 303 303 303 302 302 301 300 300 299 299 298 298 298 298 298 298 298 298 297 297 297 297 297 297 297 297 297 297 297 297 297 298 298 298 298 298 298 298 298 298 298 298 298 298 298 299 300 300 301 301 302 303 304 308 312 317 320 321 322 323 323 324 323 323 325
315 314 316 315 312 314 315 313 314 314 314 313 311 311 312 311 310 309 309 312 312 308 309 310 309 307 305 304 303 302 302 302 303 302 302 301 300 299 299 299 298 298 297 297 297 297 297 297 296 296 296 296 296 296 296 296 296 297 297 297 297 297 297 297 297 297 297 297 297 297 297 297 297 298 298 298 298 297 298 298 299 299 300 301 301 302 304 308 312 317 320 321 323 324 325 325 325
317 315 311 312 312 314 315 313 314 313 313 312 311 312 311 309 309 309 309 312 312 311 311 309 308 307 305 304 303 302 302 302 302 301 301 300 299 299 298 298 298 297 297 297 297 297 296 296 296 296 296 295 295 295 295 296 296 296 296 296 297 296 296 296 296 296 296 296 296 297 296 297 297 297 297 297 297 297 297 297 297 297 298 298 299 299 300 301 304 308 314 318 321 323 324 325 325
317 317 312 312 313 312 314 313 313 313 312 312 311 311 310 309 311 309 308 310 310 310 310 308 307 305 304 304 303 302 302 302 301 300 300 299 299 298 297 297 297 297 296 296 296 296 296 296 296 296 296 295 295 295 295 296 296 296 296 296 296 296 296 296 296 296 296 296 296 296 296 296 296 296 297 297 297 297 297 297 297 297 297 296 297 297 298 298 299 301 306 312 317 321 322 324 325
316 317 312 312 313 313 314 313 313 312 311 311 311 310 310 311 310 308 308 309 309 309 308 307 306 304 304 303 303 302 301 301 300 300 299 298 297 297 296 297 296 296 296 296 296 296 296 296 296 296 295 295 295 295 295 295 296 296 296 296 296 296 296 296 295 295 295 295 295 296 296 296 296 296 296 296 296 297 297 297 297 297 297 296 296 296 296 296 297 298 300 304 310 316 320 323 324
313 315 313 312 312 312 312 312 312 311 310 311 311 311 310 309 309 309 308 308 308 308 307 305 305 304 303 303 302 301 301 300 299 299 298 297 296 296 296 296 296 296 296 296 296 296 296 295 295 295 295 294 294 294 294 295 295 295 296 296 296 295 295 295 295 295 295 295 295 295 295 296 296 296 296 296 296 296 296 297 297 297 297 297 296 295 295 295 295 296 297 298 302 309 316 320 322
313 312 312 312 312 312 312 312 312 311 310 310 312 312 309 307 310 311 308 306 307 306 305 304 304 303 302 302 301 301 300 300 299 297 297 296 295 295 295 295 295 295 295 295 295 295 295 295 295 294 294 294 293 294 294 294 295 295 295 295 295 295 295 295 295 295 295 295 295 295 295 295 295 295 295 295 296 296 296 296 296 296 296 297 297 296 295 294 294 295 295 296 297 301 308 315 319
312 311 313 312 310 311 311 311 311 311 310 309 311 312 308 306 310 312 308 305 306 305 304 303 303 303 301 301 300 300 299 298 297 296 296 295 295 295 295 295 294 295 294 294 294 294 294 294 294 294 294 294 293 293 294 294 294 294 295 295 295 295 294 294 294 294 294 294 294 294 294 294 294 294 294 295 295 295 295 296 296 296 296 296 296 296 296 295 294 294 294 295 295 296 300 306 313
312 311 314 314 314 315 311 309 310 310 311 310 310 312 311 310 310 311 308 305 304 304 303 302 301 301 300 300 299 299 298 297 296 295 295 295 295 295 295 294 294 294 294 294 294 294 294 294 294 294 294 293 293 293 293 293 294 294 294 295 295 295 295 294 294 294 294 294 294 294 294 294 294 294 294 294 294 294 294 294 295 295 295 295 295 296 296 295 294 294 294 294 295 295 296 300 306
313 310 312 317 319 320 310 308 310 308 311 310 310 313 314 313 310 308 308 305 303 302 302 301 300 300 299 299 299 298 297 296 296 295 295 295 295 295 294 294 294 294 294 294 295 294 294 294 294 294 293 293 292 292 293 293 293 294 295 295 295 295 295 294 294 294 294 294 294 294 294 294 294 294 294 294 294 294 294 294 294 294 294 294 293 294 295 296 295 294 294 294 294 295 295 297 300
315 310 316 320 318 323 316 308 310 310 311 309 310 313 313 314 310 307 306 304 304 302 301 301 300 300 299 299 299 297 296 296 295 295 295 295 295 294 294 294 294 294 294 294 294 294 294 293 293 293 292 292 292 292 292 293 293 294 295 295 295 295 294 294 294 294 294 293 294 294 294 294 294 294 294 294 294 293 293 293 293 293 293 293 293 293 294 295 295 295 294 294 294 294 295 295 297
320 313 323 325 316 323 322 307 307 312 312 308 310 314 313 313 310 307 306 304 304 302 301 301 300 300 299 299 299 297 296 295 295 295 295 295 294 294 294 294 294 294 294 294 294 293 293 293 292 292 292 292 292 292 292 293 293 294 295 295 295 295 294 294 294 293 293 293 293 293 293 293 293 294 293 293 293 293 293 293 293 292 291 292 292 292 293 294 294 295 294 293 294 294 294 294 295
326 317 320 326 318 318 318 309 306 309 311 309 310 314 315 313 308 305 305 303 302 301 300 300 300 300 299 299 299 298 296 295 294 294 295 295 294 294 294 294 294 294 294 294 293 293 293 292 292 292 291 292 292 292 292 292 293 294 295 295 295 295 294 294 293 293 293 293 293 293 293 293 293 294 293 294 294 294 293 293 292 292 291 291 291 291 292 293 293 294 294 294 294 294 294 294 294
328 321 318 321 318 313 315 314 308 306 310 311 311 312 312 312 307 303 303 303 301 300 300 300 300 300 299 299 299 298 297 296 295 294 295 295 294 294 294 294 294 295 294 293 293 292 292 292 291 291 291 292 292 292 292 292 293 294 294 295 294 294 294 293 293 293 292 293 293 293 293 293 293 293 293 294 294 293 293 293 292 292 291 291 290 290 291 292 292 293 293 294 294 294 294 293 294
320 319 318 316 315 312 313 314 310 308 311 312 312 312 311 311 309 304 303 302 301 300 301 300 300 299 299 299 299 298 297 296 296 295 295 295 294 294 294 294 294 294 293 293 292 292 291 291 291 291 291 292 292 292 292 292 293 294 294 294 294 294 294 293 293 292 292 292 292 292 293 293 293 293 293 293 293 293 293 293 292 292 291 291 291 290 290 291 292 292 293 294 295 294 294 294 294
314 314 315 313 313 312 311 311 308 307 310 311 310 311 310 310 310 306 303 302 301 301 301 300 299 299 299 299 299 298 298 297 296 295 295 294 294 294 294 294 294 293 292 292 291 291 291 291 291 291 291 291 291 291 292 292 293 293 294 294 294 294 293 293 292 292 292 292 292 292 292 292 292 292 292 292 292 293 293 292 292 292 291 290 290 290 290 290 291 292 293 293 293 293 294 294 294
311 312 313 312 312 311 310 310 308 305 308 312 309 309 310 309 309 307 303 302 300 299 300 300 299 299 298 298 298 298 298 297 297 295 295 294 294 294 294 294 293 292 292 291 291 291 291 291 291 291 291 291 291 291 292 292 292 293 293 293 293 293 292 292 292 292 292 292 292 292 292 292 292 292 292 291 291 291 291 291 291 291 290 290 290 289 290 290 290 290 291 292 292 293 294 294 294
310 312 313 312 311 311 309 309 308 305 307 312 310 309 310 309 309 307 304 302 300 300 300 299 299 299 299 298 298 299 298 297 297 296 294 294 294 294 294 293 292 292 291 291 291 291 291 291 291 291 291 291 291 291 292 292 292 292 292 292 291 292 292 292 292 292 292 292 292 291 291 291 291 291 291 291 291 291 291 291 291 290 290 290 290 289 289 289 289 290 290 291 292 294 294 294 294
311 311 311 313 312 312 312 310 310 308 308 312 311 309 309 308 308 307 305 302 302 302 302 302 301 299 299 299 298 298 298 297 297 296 295 294 294 294 294 293 292 292 291 291 291 291 291 291 291 291 291 291 291 291 291 291 291 291 291 291 291 291 291 291 291 291 291 291 291 291 290 290 290 290 290 290 291 291 291 291 291 291 290 290 289 289 288 288 289 289 290 291 293 294 294 294 294
312 311 312 314 312 313 315 313 312 311 309 310 310 308 307 307 307 308 306 304 304 304 303 303 302 301 300 300 299 299 298 297 297 296 295 294 294 294 293 292 292 292 291 291 291 291 291 291 291 291 291 291 291 291 291 291 291 291 291 291 291 291 291 291 291 291 291 291 291 290 290 290 290 290 290 290 290 290 290 290 291 291 290 290 289 288 287 287 288 288 289 290 291 293 294 294 295
316 314 312 314 313 313 314 312 311 311 313 311 308 308 310 308 308 309 307 303 303 303 302 302 301 301 301 300 299 299 299 298 297 296 295 294 294 294 293 292 292 291 291 291 291 291 291 291 291 291 291 291 291 291 291 291 291 291 291 291 291 291 291 291 291 291 291 291 291 291 290 290 290 290 289 289 289 289 290 290 290 290 290 290 290 288 287 286 286 288 289 290 290 292 293 295 295
320 318 314 313 314 313 312 312 311 312 316 311 307 312 316 312 309 309 308 306 304 302 301 301 301 301 300 299 299 298 298 298 297 297 295 294 294 294 293 292 292 291 291 291 291 291 291 291 291 291 291 291 291 291 291 291 290 290 291 290 290 290 290 290 290 290 290 290 290 290 290 290 289 289 289 289 289 289 289 289 289 290 290 290 289 288 287 286 286 287 288 290 291 292 293 295 295
318 317 314 314 313 311 311 311 311 315 315 308 307 312 313 311 310 311 310 309 307 304 301 300 300 300 299 299 299 298 298 298 297 296 295 295 294 293 292 292 292 291 291 291 291 291 291 291 291 291 291 291 290 290 290 290 290 290 290 289 289 289 289 290 290 290 290 290 290 290 289 289 289 289 289 289 289 289 289 289 289 289 289 290 289 288 287 286 286 286 287 289 291 292 293 294 295
320 313 311 313 311 309 309 308 309 312 310 307 307 308 308 308 310 310 309 308 308 305 304 301 298 299 300 299 299 298 298 298 297 295 295 294 294 293 292 292 292 291 291 291 291 291 291 291 291 291 291 290 290 290 290 290 290 290 289 289 289 289 289 289 289 289 289 289 289 290 289 289 289 289 289 289 288 289 289 289 289 288 289 289 288 287 286 285 285 285 286 288 290 292 293 294 295
318 309 307 309 307 308 307 306 308 308 306 308 309 306 308 311 310 309 306 307 309 307 306 304 299 298 299 299 298 298 298 298 297 295 294 294 293 293 293 292 292 291 291 290 291 291 291 291 291 291 291 290 290 290 290 289 289 289 289 289 289 289 289 289 289 289 289 289 289 289 289 289 289 289 288 288 288 288 288 288 288 288 288 288 287 286 285 285 284 284 285 287 289 291 293 294 295
310 306 309 311 310 310 308 307 309 309 308 311 310 307 310 315 314 311 306 308 312 309 307 305 300 299 299 298 298 298 298 298 297 295 294 294 293 293 293 292 292 291 290 290 290 291 291 291 291 291 290 290 290 289 289 289 289 289 289 289 289 289 289 289 289 289 289 289 289 289 289 288 288 288 288 288 287 288 288 288 288 287 287 287 285 284 284 284 284 284 285 287 288 290 292 293 294
304 308 313 314 314 311 309 309 310 312 314 315 312 308 310 314 314 312 311 315 316 313 310 308 302 298 298 298 298 298 298 297 296 295 294 294 293 293 292 292 291 291 290 290 290 290 291 290 290 291 290 290 289 289 289 289 289 288 288 288 288 288 288 289 288 288 288 288 288 288 288 288 288 287 287 287 287 287 287 287 287 286 286 285 284 283 282 282 282 283 284 286 287 289 291 292 293
305 313 315 316 317 315 315 313 311 316 320 318 311 307 308 312 313 312 313 315 313 311 312 312 306 299 297 298 298 298 298 297 296 294 294 293 293 293 292 292 291 291 290 290 290 290 290 290 290 290 290 289 289 288 289 288 288 288 288 288 288 288 288 288 288 288 287 287 287 287 287 287 287 286 287 287 287 287 287 287 287 285 284 284 282 281 281 281 280 281 283 284 286 288 290 291 292
309 313 315 319 320 320 321 317 314 318 319 312 306 306 308 309 311 310 310 312 310 307 306 308 305 299 297 299 298 297 297 296 295 294 294 293 293 293 292 292 291 291 291 290 290 290 290 290 289 290 289 289 288 288 288 288 288 288 288 288 288 288 288 288 287 287 287 286 286 286 286 286 286 286 286 287 287 287 288 287 286 285 283 282 281 280 280 280 280 280 281 283 285 286 289 291 292
308 311 317 322 321 321 323 319 317 318 317 308 302 306 310 310 311 311 309 310 308 304 302 302 302 300 300 300 298 297 296 296 295 294 293 293 293 293 292 292 291 291 291 291 290 290 290 290 289 289 289 288 288 288 288 288 288 288 288 288 288 288 287 287 287 287 286 286 285 285 285 285 285 285 286 286 287 287 288 287 286 284 283 281 280 279 279 279 279 279 280 282 283 285 288 291 292
307 310 315 319 322 323 323 322 320 317 316 310 303 308 314 313 313 311 305 302 300 300 300 299 300 300 301 300 298 296 295 295 294 294 294 293 293 293 292 292 291 291 291 290 290 290 290 289 289 289 289 288 288 288 288 288 288 288 287 287 287 287 287 287 287 286 285 285 285 284 284 284 285 285 286 286 287 287 287 287 286 284 283 281 279 278 278 278 278 278 280 281 282 284 287 289 291
307 308 312 315 319 320 318 318 317 312 312 311 307 310 313 310 309 307 301 297 297 296 296 296 298 299 299 298 296 295 295 294 294 293 293 293 293 292 292 291 291 291 291 290 290 290 290 289 289 288 288 288 288 288 288 288 287 287 287 287 287 287 287 286 286 286 285 284 284 284 284 284 285 285 286 286 287 287 287 286 285 284 282 280 278 277 277 278 278 278 279 280 281 283 285 287 290
309 307 313 312 310 314 317 315 311 308 310 313 311 310 310 310 309 305 301 300 299 298 295 294 296 297 297 296 295 294 294 294 294 293 293 293 293 292 292 291 291 291 291 290 290 290 289 289 288 288 288 288 288 288 288 287 287 287 287 287 287 286 286 286 285 285 284 284 283 283 284 284 285 285 286 286 287 287 286 285 283 282 281 280 278 276 276 277 277 277 278 279 280 282 283 285 288
312 312 312 307 305 310 314 314 312 308 310 313 312 310 310 311 310 304 300 301 303 302 297 293 293 294 294 294 294 294 294 293 294 293 293 293 292 292 291 291 291 291 291 291 290 290 289 289 288 288 288 288 288 288 288 287 287 287 287 287 287 286 286 285 285 284 284 283 283 283 284 284 285 285 286 286 286 286 285 284 281 280 280 279 277 276 276 276 276 276 277 279 280 281 282 284 287
307 309 306 305 310 312 310 311 313 312 312 313 313 312 311 312 313 310 305 304 306 304 297 294 295 293 292 293 293 293 293 293 293 293 293 292 292 292 291 291 291 291 291 290 290 289 289 289 288 288 288 288 288 287 287 287 287 287 287 286 286 286 285 285 284 284 283 283 283 283 284 284 285 285 285 285 284 284 283 282 280 279 278 278 277 275 275 275 275 275 277 278 279 280 281 283 286
301 302 302 304 310 311 310 310 311 314 313 312 314 313 311 313 317 318 312 308 309 305 297 295 296 293 292 293 293 293 293 293 293 293 293 292 292 292 291 291 291 291 291 290 289 289 289 288 288 288 288 288 288 287 287 287 287 287 286 286 286 285 285 284 283 283 283 283 283 283 284 285 285 285 284 283 283 282 281 280 279 277 277 277 276 275 274 275 275 275 275 277 278 279 280 282 286
304 305 304 303 304 307 310 308 307 311 312 311 313 313 312 313 315 317 313 310 309 306 300 296 294 293 294 293 293 293 293 293 293 293 292 292 292 291 291 291 291 291 290 290 289 289 289 288 288 288 288 288 287 287 287 287 287 286 286 286 286 285 284 284 283 283 282 283 283 284 284 285 285 284 283 282 281 280 279 278 277 276 275 275 275 274 274 274 274 275 275 276 277 278 279 281 285
308 307 307 305 304 306 309 308 306 307 309 311 313 312 311 311 311 312 313 312 309 304 300 297 294 293 294 293 294 294 293 293 293 293 293 292 292 291 291 291 291 290 290 290 289 289 288 288 288 288 288 287 287 287 287 286 286 286 286 285 285 285 284 283 283 283 282 283 283 284 284 284 284 283 282 280 279 278 278 277 275 274 274 274 274 274 274 274 274 275 275 275 276 278 279 281 284
Wind_Speed
5 4 2 2 1 1 1 0 1 3 4 3 3 1 1 1 2 2 1 2 2 6 15 17 14 17 16 15 17 18 15 6 2 3 3 1 4 8 10 9 7 5 5 4 4 5 5 4 1 0 1 1 1 2 3 3 4 5 6 6 7 6 7 9 9 8 10 10 12 14 14 14 15 16 14 12 12 12 13 14 15 15 14 13 13 13 13 14 14 15 16 17 16 16 17 19 19
4 4 4 2 1 1 1 1 2 3 5 3 3 1 1 2 2 4 5 1 8 13 26 31 27 26 22 21 18 17 17 11 8 8 6 3 2 5 10 9 8 6 5 4 5 6 6 5 3 2 3 3 4 5 5 6 6 6 7 8 8 8 7 9 11 9 10 11 12 13 15 16 17 18 16 14 14 13 13 13 14 15 15 15 15 15 15 15 15 15 16 17 17 16 16 17 19
3 4 3 2 1 1 1 3 2 2 4 2 4 3 1 1 3 7 5 8 21 24 25 23 19 15 11 13 12 10 8 8 10 8 6 4 1 5 9 8 8 7 6 5 6 7 6 5 3 3 4 6 6 6 7 8 8 8 8 8 9 9 8 9 11 11 11 12 13 14 15 17 17 17 17 16 16 15 15 14 14 15 16 16 15 16 16 17 17 16 15 16 16 16 16 17 18
3 5 3 3 3 2 2 3 2 4 3 2 2 3 2 4 6 7 1 9 20 20 16 14 12 11 11 11 8 8 8 8 8 6 6 8 7 6 6 7 7 6 6 6 7 7 7 6 5 3 3 5 6 7 8 8 9 10 10 10 10 10 10 10 10 11 12 13 14 15 15 16 15 15 15 16 16 16 17 16 15 16 16 17 17 17 17 17 17 17 15 15 16 16 17 17 18
3 4 2 2 3 1 3 3 2 4 3 4 2 4 4 5 7 4 4 7 12 13 12 13 7 9 16 12 5 4 5 7 9 9 10 10 7 5 5 5 5 6 7 7 8 8 9 9 8 7 6 4 5 6 8 9 9 10 11 12 13 12 12 11 10 10 11 12 13 14 15 16 16 15 16 16 16 16 16 16 17 17 17 18 19 19 18 18 18 17 16 16 16 16 17 17 18
3 3 2 3 3 2 3 2 3 2 4 5 3 5 4 6 7 6 10 11 11 13 14 14 12 14 15 12 11 7 5 8 9 10 10 8 5 4 3 3 4 5 6 8 9 9 10 10 9 9 9 8 7 6 6 8 9 9 10 12 13 14 14 14 13 11 11 11 12 13 14 14 16 16 16 17 17 16 15 16 17 18 17 18 20 20 20 19 19 19 18 17 17 17 17 18 18
3 4 3 5 3 2 3 3 4 2 2 5 4 5 5 7 10 13 10 8 11 11 14 19 22 19 9 6 9 10 10 10 10 10 8 7 4 3 3 3 4 5 8 9 10 10 10 10 9 9 9 9 9 9 8 7 8 9 9 11 12 13 14 15 15 14 14 12 12 12 12 14 15 15 16 17 17 17 17 17 18 18 17 18 18 19 20 20 21 21 20 19 19 18 18 18 19
3 3 2 4 2 4 4 3 3 2 1 3 3 4 3 7 13 10 3 3 6 7 16 21 17 10 4 6 7 10 13 11 11 10 8 6 3 2 3 3 5 7 10 11 11 12 12 12 11 11 10 10 10 10 10 9 8 8 8 10 11 12 13 14 15 16 16 16 15 14 13 14 15 15 16 17 18 19 19 19 19 19 19 19 18 19 20 21 21 21 22 21 20 20 20 19 20
2 1 1 3 2 3 3 2 1 2 2 3 2 2 2 8 11 7 4 5 8 10 14 12 3 4 9 12 11 11 13 12 11 9 7 5 2 1 2 3 6 8 10 10 11 11 12 13 13 13 13 12 12 12 11 11 11 10 8 8 9 11 12 14 15 16 17 17 17 16 16 15 15 14 14 15 17 19 20 21 21 20 20 19 19 21 22 22 22 22 23 23 22 21 22 21 20
0 1 1 3 3 4 3 0 0 1 2 3 2 1 2 7 8 10 9 7 9 11 8 6 3 13 16 12 11 12 13 11 10 8 6 4 3 3 3 4 6 8 8 9 10 11 11 12 12 12 13 13 12 12 12 12 13 13 12 11 9 9 10 13 14 16 17 18 19 19 18 18 18 16 15 15 15 16 18 19 20 20 20 19 19 21 22 23 23 23 24 24 24 24 24 24 23
0 2 2 4 4 3 2 3 2 2 3 4 3 1 3 11 14 11 11 10 8 11 10 7 11 20 16 8 9 11 13 12 10 8 6 5 5 4 4 6 6 7 8 9 10 10 11 12 12 12 12 13 12 12 12 12 12 13 13 13 13 12 10 11 12 14 17 18 20 20 20 20 20 20 18 17 17 17 16 17 17 19 20 20 20 21 22 23 25 24 24 25 26 27 27 26 26
0 1 3 4 3 3 4 4 3 3 5 4 1 3 5 13 15 9 10 11 10 12 9 6 15 20 10 4 9 12 13 11 9 7 6 6 5 5 5 6 6 7 8 9 9 10 11 12 13 13 13 13 13 12 12 12 12 12 12 12 13 13 13 12 11 12 14 16 19 20 21 21 21 21 21 20 19 19 19 19 18 19 20 20 21 21 21 23 25 26 26 26 27 28 29 28 27
2 2 5 3 2 3 4 4 3 1 4 2 2 3 5 7 12 15 14 11 9 9 4 10 21 16 5 6 12 14 14 11 9 7 7 6 5 4 4 5 6 7 8 8 8 10 11 12 13 14 14 14 14 13 13 12 12 12 12 12 12 12 12 13 13 13 13 13 15 18 20 22 22 22 22 21 21 21 22 22 22 21 21 20 21 21 22 23 24 27 29 29 28 28 29 30 29
3 3 4 3 1 3 5 4 2 3 1 4 2 3 6 6 10 17 16 9 5 6 7 17 21 9 6 9 10 16 15 12 10 8 8 6 5 4 3 3 4 5 6 7 8 9 11 12 13 13 13 13 13 14 14 14 13 13 13 13 13 13 13 13 13 14 14 14 14 15 16 19 22 23 23 23 22 23 23 24 25 25 24 23 22 22 23 23 24 26 28 30 31 29 29 31 32
4 3 5 4 2 1 3 3 3 5 4 4 2 7 10 8 9 11 10 8 5 10 14 18 16 4 9 13 11 21 18 13 13 10 10 7 6 4 2 2 3 3 5 6 8 9 10 11 11 13 13 13 14 15 16 15 15 14 14 14 14 14 14 14 14 15 15 15 16 16 16 16 18 20 23 24 24 24 24 24 25 26 26 26 25 25 24 25 25 27 27 29 32 32 31 31 33
4 3 5 3 2 2 3 3 4 4 4 4 7 11 10 6 8 6 4 8 10 14 12 12 13 5 11 16 14 23 20 15 14 11 11 8 6 4 3 2 2 2 4 6 7 8 9 11 12 14 15 16 16 17 18 17 17 16 15 15 15 15 15 15 16 16 16 16 17 17 18 18 18 18 19 22 23 24 25 25 25 26 27 27 28 27 27 27 27 28 29 29 30 32 34 33 34
2 2 5 3 2 3 3 4 5 5 5 4 10 10 6 3 6 6 5 11 13 13 9 8 10 8 13 17 16 23 20 16 16 13 12 9 7 5 4 2 1 2 4 5 7 9 10 12 14 17 18 18 19 18 19 18 18 17 16 16 15 15 15 16 16 17 18 18 18 19 19 19 20 20 20 20 21 23 24 26 26 26 26 27 28 28 29 29 28 29 30 30 29 31 34 35 35
2 3 4 1 3 3 5 7 7 5 4 7 11 11 8 7 7 10 8 9 14 12 9 9 10 11 16 18 19 21 18 18 17 14 14 11 9 7 5 3 1 2 4 5 7 9 11 14 17 19 20 21 20 20 20 19 19 18 18 17 16 16 15 16 17 17 18 19 20 20 21 21 21 21 21 22 22 22 23 24 26 27 27 28 28 29 30 30 31 31 31 30 30 31 34 36 37
2 3 3 2 4 4 3 6 9 5 5 9 10 12 11 9 14 17 8 6 13 12 9 11 14 16 17 20 20 19 19 18 16 14 14 11 9 7 5 3 1 2 3 5 7 10 12 15 18 20 21 22 22 22 21 21 20 19 19 18 17 16 16 17 17 17 18 19 20 21 22 22 23 23 23 23 24 25 25 24 25 26 27 28 28 29 29 30 31 32 32 31 31 32 34 36 37
1 3 3 5 6 4 3 7 12 8 9 11 9 12 10 10 18 17 10 9 8 8 12 13 16 22 21 21 21 19 19 17 15 14 13 10 9 7 5 3 1 2 5 7 9 11 13 16 18 20 21 22 23 23 23 22 21 20 19 19 18 18 18 18 18 18 19 19 19 20 21 22 23 24 25 26 26 27 27 27 27 26 27 27 28 29 29 30 31 32 32 31 32 32 34 36 36
1 3 2 5 5 4 5 9 10 8 11 12 10 11 8 14 18 15 16 10 4 12 22 19 18 26 25 23 22 19 19 17 15 13 11 10 8 6 4 2 2 4 7 9 11 13 15 17 18 20 22 22 23 23 23 22 21 21 20 19 19 18 18 19 19 20 20 20 21 21 21 22 23 24 25 27 28 29 29 30 30 30 29 28 28 29 29 30 30 32 33 33 33 32 34 36 36
2 0 1 5 7 3 6 10 7 9 11 10 9 9 11 16 14 17 21 11 7 17 27 21 18 25 25 24 23 20 19 17 15 13 11 10 7 6 4 3 3 5 8 10 12 14 16 17 19 20 21 21 21 22 21 21 21 22 22 21 21 20 19 19 20 20 21 22 23 24 24 24 24 24 25 26 27 29 30 31 31 32 32 32 30 30 29 30 30 30 32 33 34 33 33 34 36
2 2 1 4 6 3 8 11 8 10 11 10 9 8 13 15 9 18 26 17 10 14 21 19 17 23 24 24 24 22 20 18 16 14 12 10 7 5 3 3 3 6 7 10 12 14 16 17 18 19 20 20 20 21 21 21 22 23 23 23 23 23 22 21 21 21 21 22 23 25 26 27 27 27 27 27 27 28 30 31 32 33 33 33 33 32 31 30 30 30 31 32 34 35 34 33 34
1 2 2 3 3 3 8 10 9 11 11 12 10 8 13 13 7 13 24 22 12 9 17 19 20 25 24 23 24 22 21 18 16 14 12 10 7 5 4 3 4 6 7 10 11 13 14 16 17 18 19 20 20 20 20 21 22 23 23 23 24 24 24 24 24 23 22 22 22 24 25 26 27 29 29 30 30 30 30 30 32 33 33 34 33 34 34 33 32 32 31 32 33 35 36 35 35
2 2 2 1 1 2 7 8 9 11 10 10 9 7 10 12 9 10 20 21 13 12 19 21 25 27 25 25 24 23 21 18 17 14 12 10 7 6 4 3 3 5 7 9 11 12 13 15 16 17 18 18 19 19 20 21 22 22 23 23 24 24 25 25 25 25 25 25 25 25 26 27 28 29 30 31 32 33 33 32 32 32 33 34 33 33 33 34 34 34 33 33 33 34 36 37 37
1 2 5 3 3 2 5 9 10 11 9 8 8 6 6 9 7 7 17 19 15 18 22 25 28 28 26 26 24 23 22 19 17 14 12 10 8 6 4 3 3 5 6 8 10 11 12 14 15 16 17 17 17 18 19 20 21 22 23 24 24 25 25 26 27 27 27 28 28 28 28 29 30 31 32 33 33 34 35 35 35 34 33 33 34 34 33 33 35 35 35 35 35 35 36 37 37
5 5 7 7 7 6 5 10 12 11 8 7 7 3 3 8 5 5 14 19 20 23 25 28 28 28 28 26 24 23 21 19 16 14 12 10 8 6 4 3 3 4 5 7 8 10 11 13 14 15 16 16 17 17 19 20 21 22 23 24 25 26 26 27 28 28 29 30 31 32 32 33 34 34 35 35 35 36 36 36 36 36 36 34 34 34 33 33 34 35 35 36 36 36 37 37 38
7 7 9 9 8 8 6 9 12 10 6 7 5 0 1 5 3 8 16 23 25 27 28 29 28 28 27 26 24 22 20 18 16 14 12 10 9 7 5 4 3 3 4 6 8 10 11 13 14 15 16 16 17 18 19 19 20 21 23 24 25 26 27 28 29 30 31 32 33 34 35 36 37 38 38 38 38 39 39 38 38 37 37 36 34 35 34 33 34 35 36 36 36 37 38 38 38
6 4 6 8 9 7 4 4 8 9 5 6 4 1 3 6 9 10 16 26 28 28 29 29 29 28 27 26 24 22 21 19 17 15 13 11 9 7 5 3 2 2 4 6 9 10 11 13 14 15 16 17 18 18 19 19 20 21 23 25 26 27 28 29 30 31 31 32 33 34 35 36 37 39 40 40 40 40 40 40 39 38 37 35 34 34 35 35 34 36 37 37 37 37 38 39 38
4 3 3 4 8 6 3 1 4 6 5 7 5 3 7 9 14 11 16 29 30 28 31 31 31 30 28 27 25 24 22 20 19 16 13 11 8 6 5 2 2 2 5 7 9 10 11 12 13 15 16 17 18 19 19 19 21 22 24 25 27 28 29 30 30 31 32 32 33 34 35 37 38 39 40 41 42 42 43 42 41 39 36 34 32 32 34 35 34 36 37 38 39 38 39 39 39
2 1 2 3 4 4 5 2 5 5 5 9 7 4 9 8 13 13 19 30 32 31 32 33 33 32 31 29 27 25 24 21 19 17 14 11 8 6 4 2 2 3 6 7 9 10 11 12 13 14 16 18 18 19 19 20 21 23 25 27 28 29 30 31 31 32 32 33 34 35 36 38 39 41 42 43 44 44 44 44 43 41 37 34 33 31 31 33 34 36 37 38 40 40 40 40 39
3 2 3 3 1 5 9 4 7 5 3 8 8 3 10 9 10 14 23 30 33 32 32 34 34 34 33 31 29 27 24 21 19 17 15 12 8 5 3 1 2 4 6 8 9 10 10 11 13 15 17 18 19 20 20 21 22 24 27 29 29 30 31 32 32 33 33 33 34 35 36 37 39 41 43 44 45 45 44 43 42 41 38 35 33 32 32 33 34 36 36 36 39 41 42 42 41
4 1 2 4 2 4 8 4 5 4 1 5 6 4 8 7 5 9 24 31 32 29 28 32 35 35 35 33 31 29 26 23 21 19 16 13 10 6 4 3 3 5 7 8 9 9 10 12 14 16 17 18 19 20 21 22 24 26 28 30 30 31 32 33 33 34 34 34 35 35 36 37 39 41 43 45 46 47 46 45 42 41 40 37 34 33 33 34 33 35 36 35 37 41 42 43 43
4 2 1 4 4 3 5 6 3 1 2 4 5 5 11 11 3 7 23 31 31 27 27 33 35 35 36 35 33 31 29 27 25 22 19 15 12 8 6 5 5 6 7 7 9 10 11 12 14 15 17 18 20 20 22 23 25 28 29 30 31 31 32 33 34 35 35 36 36 37 38 38 39 40 42 44 46 48 48 47 44 42 41 40 38 35 32 32 33 34 36 35 36 40 42 43 44
3 3 2 4 4 4 6 6 4 2 2 5 4 6 14 16 8 8 20 28 30 30 31 33 34 35 35 36 35 33 32 30 27 24 21 18 14 10 8 7 6 6 6 7 9 10 11 12 13 15 17 18 19 21 22 24 27 29 30 31 31 31 33 34 35 35 36 37 37 38 39 39 40 40 41 43 45 47 48 47 45 42 40 40 40 39 35 32 32 33 35 36 38 39 40 42 44
5 5 4 4 5 6 7 6 4 2 3 7 7 8 13 16 14 10 17 27 31 31 30 28 29 32 34 36 37 35 34 32 28 25 22 19 15 12 10 9 7 5 5 7 8 10 11 12 13 15 17 19 20 21 24 26 29 30 31 32 32 32 33 34 35 35 36 37 37 38 39 39 41 41 41 43 45 46 47 48 46 43 40 38 39 40 39 34 32 33 36 38 39 39 39 41 42
4 3 4 5 5 8 8 4 4 1 2 8 8 8 11 15 17 13 15 23 24 25 26 25 28 32 35 38 38 37 35 32 28 26 24 21 17 14 11 10 6 4 4 6 8 10 12 13 15 17 18 20 21 23 26 29 31 32 33 34 34 34 34 35 35 35 35 36 36 37 38 39 40 42 43 44 46 47 48 47 46 45 42 39 39 40 40 38 34 33 36 38 38 38 39 40 39
3 3 4 5 5 8 9 4 5 2 3 6 5 6 11 13 17 16 11 15 19 26 28 27 31 34 36 39 39 39 35 30 30 30 26 23 19 15 12 10 6 4 4 6 9 11 12 14 16 18 19 21 23 25 27 29 30 32 33 34 35 35 35 36 36 36 36 37 38 38 39 40 41 43 44 45 46 47 48 48 47 46 44 42 40 40 39 39 37 34 34 37 37 37 39 39 37
3 2 2 4 4 4 8 4 5 3 2 6 6 6 10 12 16 19 12 15 22 33 36 36 36 36 38 39 39 39 36 33 33 34 30 25 21 16 13 11 6 4 4 7 9 12 13 16 17 19 21 22 24 26 28 29 30 31 32 33 35 36 36 36 37 37 38 39 40 40 42 43 44 45 45 46 46 47 47 47 47 45 44 43 42 41 39 38 38 35 33 35 37 38 39 38 36
4 3 2 5 4 1 4 4 5 4 2 6 9 9 9 10 15 19 16 19 26 32 36 37 36 36 40 41 41 42 41 38 37 36 32 26 21 17 14 11 6 4 4 7 10 12 14 17 19 20 22 24 25 27 28 29 30 30 32 33 34 36 36 37 38 39 39 40 41 42 43 44 45 47 48 48 48 48 48 47 46 45 44 43 42 41 40 38 37 35 33 34 36 39 40 39 36
4 5 6 6 5 5 6 4 6 6 4 4 9 9 7 7 12 13 8 9 19 24 25 28 33 35 35 36 38 41 42 41 39 37 34 27 22 19 15 10 6 4 4 8 10 13 15 17 19 21 22 24 26 27 28 29 30 32 33 35 35 36 37 38 39 40 40 41 42 42 43 44 45 47 49 50 50 50 49 47 46 45 44 44 42 41 41 39 38 35 32 33 35 37 40 40 38
5 5 9 9 8 7 5 5 6 5 4 3 7 7 6 2 6 10 5 3 10 13 14 22 30 31 31 34 37 39 40 41 39 36 33 28 23 20 15 10 7 4 4 8 10 13 15 17 19 21 23 24 26 27 28 29 31 33 35 36 37 38 39 39 39 41 42 42 43 44 44 44 45 47 48 49 50 50 51 49 47 45 45 45 43 41 40 39 38 36 33 33 34 35 37 40 41
4 4 6 7 4 2 2 4 4 1 3 2 4 2 8 3 3 10 9 7 10 9 9 18 25 28 32 38 39 39 40 41 37 33 32 29 25 21 15 10 7 4 5 7 10 12 15 17 19 21 23 25 26 27 28 29 31 33 34 36 37 39 40 40 40 41 42 43 44 45 45 45 45 46 47 48 49 49 50 50 49 46 45 46 45 42 40 39 38 39 36 33 34 33 34 40 43
3 4 4 5 4 2 2 3 1 3 3 4 3 4 8 8 6 9 8 8 13 12 11 14 19 27 35 38 37 38 41 42 38 33 32 30 26 21 15 10 7 4 5 7 10 12 15 17 19 21 23 25 26 28 28 29 31 33 34 35 36 38 39 41 41 42 42 43 45 46 46 47 46 46 48 49 49 49 50 51 50 48 46 46 46 43 40 39 38 39 37 34 34 33 33 38 42
5 4 4 5 4 3 3 3 1 2 3 6 5 7 4 9 5 3 2 4 12 14 15 14 16 27 34 35 35 37 40 42 39 35 33 31 26 20 15 10 7 4 5 7 10 12 15 18 20 21 23 25 27 27 28 29 31 33 34 36 37 38 39 41 42 43 43 44 45 47 47 48 48 48 48 49 49 49 50 51 50 49 46 46 47 44 40 39 38 38 37 35 34 35 34 35 38
3 5 4 4 5 4 3 3 1 2 2 9 7 7 4 8 4 2 2 3 10 12 12 11 15 26 31 31 34 36 39 41 40 37 34 31 26 19 15 10 7 4 5 8 10 13 15 18 20 22 23 25 27 27 28 30 31 32 34 35 37 38 40 41 43 44 44 44 46 47 49 49 49 49 49 50 49 49 50 51 51 50 47 46 48 45 40 38 36 33 33 33 35 37 37 35 35
4 5 4 5 5 4 4 2 3 3 4 10 8 11 8 6 3 6 4 5 7 7 8 8 11 19 25 29 34 37 39 41 40 36 33 29 24 18 14 10 6 5 5 8 10 13 16 18 20 22 23 25 26 27 29 30 31 32 34 35 37 38 40 42 43 45 45 45 47 48 50 50 50 50 50 50 49 49 51 51 52 51 48 46 47 45 40 37 33 30 32 33 35 36 36 36 34
4 4 4 4 4 4 4 4 4 1 6 7 4 8 9 8 6 5 5 6 6 6 7 8 8 14 23 30 35 37 40 42 40 36 33 29 23 19 14 10 7 5 6 8 11 13 16 18 20 22 23 24 26 27 29 30 31 32 34 35 37 38 39 41 43 44 45 46 48 49 50 51 51 51 50 51 50 50 51 52 52 51 48 47 46 44 40 36 34 34 36 35 34 35 36 36 34
4 4 4 3 4 4 3 3 1 3 7 4 1 4 5 11 10 9 10 11 10 9 10 12 10 13 23 30 33 36 40 42 41 38 34 29 24 19 14 10 7 5 6 8 11 13 16 18 20 22 23 24 25 27 29 30 31 32 34 35 37 38 39 40 42 43 45 46 47 49 50 51 51 51 51 52 51 50 51 53 53 52 49 47 46 43 40 37 37 37 37 36 35 37 38 37 35
5 4 4 3 1 1 4 4 3 5 6 3 4 3 5 9 8 12 16 16 15 13 15 19 16 14 21 27 32 36 39 42 41 39 35 30 24 19 14 11 8 6 7 9 11 13 16 18 20 22 23 24 26 28 29 30 32 33 34 35 37 38 39 40 41 43 44 46 47 48 50 49 50 51 52 52 52 51 51 52 53 51 48 46 45 43 39 38 38 37 36 38 38 39 39 38 37
4 4 4 5 5 4 4 4 4 6 7 4 3 3 4 4 2 7 10 11 12 14 17 18 17 16 19 23 30 35 39 42 41 38 35 29 23 18 14 11 8 7 7 9 11 13 16 18 21 22 23 25 27 28 29 31 32 33 34 35 36 37 38 40 41 43 44 46 47 48 49 49 48 50 51 52 52 51 51 52 52 51 48 46 45 43 40 38 39 38 38 40 42 41 41 40 38
2 3 4 3 4 5 3 4 4 1 6 6 3 4 6 4 4 6 4 6 7 9 12 11 12 16 18 23 30 34 38 41 40 38 34 28 23 18 15 11 8 7 7 9 11 14 17 19 21 22 24 25 27 29 30 32 33 34 35 36 36 37 38 40 42 43 44 45 46 47 49 48 48 49 50 52 52 51 51 51 51 50 47 45 44 43 40 39 38 37 36 38 41 43 42 41 38
2 2 3 4 4 5 2 4 2 4 3 6 3 6 8 5 7 6 4 3 6 6 7 6 11 15 19 25 30 34 39 42 41 39 33 27 22 18 15 11 9 8 8 10 12 15 17 19 21 23 24 26 27 29 31 32 33 34 35 36 36 37 39 40 42 44 45 46 46 47 48 48 48 49 50 52 52 51 50 49 50 49 46 44 44 42 41 39 37 36 36 38 41 42 42 42 40
5 3 5 3 2 4 3 1 3 3 3 6 4 9 12 6 6 4 2 2 9 8 5 4 8 13 20 25 29 34 39 41 41 37 31 26 22 18 15 11 9 8 9 11 13 15 17 19 21 23 25 27 29 30 31 32 33 35 36 36 37 38 39 41 42 44 46 47 47 47 47 48 49 49 50 51 51 51 50 48 48 49 46 43 43 42 41 39 38 38 38 39 40 40 41 43 42
5 3 2 2 3 1 2 2 2 1 3 7 5 8 14 9 6 7 4 7 10 9 5 5 7 14 20 24 27 32 36 39 39 35 30 27 23 19 15 12 10 9 10 12 13 15 17 19 21 23 25 27 29 31 32 33 34 35 36 37 38 38 39 41 43 45 46 47 47 47 48 49 50 50 50 50 51 50 49 48 48 48 46 44 43 42 41 39 38 38 37 38 38 37 40 45 43
3 0 2 1 3 3 3 3 3 3 3 7 5 8 14 9 6 8 8 10 10 8 7 8 11 17 24 26 29 33 38 41 41 36 31 27 23 18 15 12 10 10 10 11 13 15 17 19 21 23 25 27 29 30 32 33 34 36 37 38 38 39 40 42 43 45 46 46 47 47 48 50 50 51 49 49 50 49 48 48 48 48 46 44 43 42 41 40 39 38 38 38 38 37 39 43 44
3 2 2 2 1 2 1 2 2 4 4 5 3 8 15 6 5 7 8 8 10 10 10 10 13 21 26 28 32 36 40 42 41 37 32 27 22 18 15 12 10 10 10 11 14 16 17 18 21 23 25 27 29 30 31 33 35 36 37 38 39 40 41 43 44 45 46 47 47 47 49 50 51 51 50 49 50 49 47 47 47 48 46 44 43 42 41 41 41 41 41 41 41 40 40 41 43
6 6 6 7 5 3 1 4 3 3 4 5 3 8 17 7 4 5 6 7 8 10 11 10 15 24 27 29 34 38 41 43 41 36 31 26 22 18 15 12 11 10 11 12 14 15 16 19 21 23 25 26 28 30 32 34 35 37 38 39 40 41 42 44 45 46 47 47 48 48 49 50 52 52 50 48 48 48 47 46 47 47 46 43 42 41 40 39 39 39 39 41 42 40 40 41 43
Wind_Direction
81 104 126 138 180 160 278 258 82 3 65 81 334 55 143 228 195 147 214 291 56 50 75 89 87 91 97 101 105 90 64 56 59 96 136 320 315 321 344 356 355 352 342 337 312 317 325 336 6 149 151 174 194 226 235 258 262 270 274 264 268 267 276 290 293 296 297 296 294 294 292 287 286 284 281 281 284 289 295 302 306 306 304 300 299 298 298 297 294 291 285 280 275 268 265 265 265
71 111 127 125 278 237 246 31 78 354 51 66 301 160 273 334 87 166 205 161 115 103 90 88 85 85 93 97 93 78 55 49 72 93 94 24 265 312 350 356 356 4 357 346 322 320 320 321 314 264 243 233 229 235 239 254 264 267 261 259 268 265 266 283 285 283 288 288 285 286 285 283 280 281 280 278 279 279 282 287 292 298 298 295 297 300 300 300 299 295 289 284 280 275 269 266 265
66 115 140 150 74 136 155 38 89 59 68 96 272 261 320 95 174 202 204 110 117 113 98 91 81 76 87 82 61 64 64 67 85 90 64 28 37 1 0 2 2 8 1 349 339 336 334 338 335 286 252 249 244 243 247 255 263 264 260 261 267 269 264 275 289 284 280 279 279 281 282 286 285 285 284 283 285 283 280 279 283 288 290 292 294 296 298 301 301 298 293 288 286 283 275 267 264
89 110 119 164 123 102 70 49 125 115 110 182 252 268 254 170 197 214 125 102 129 125 109 98 73 62 78 80 64 70 74 72 77 91 69 50 58 35 14 12 360 346 337 336 341 342 348 352 348 333 280 261 256 255 255 258 261 262 262 261 262 264 261 266 281 286 285 281 279 280 279 281 280 279 278 279 283 286 285 283 286 288 289 292 292 290 292 295 297 296 291 288 287 286 280 272 267
110 119 96 173 154 119 91 77 110 99 169 183 156 254 249 197 203 207 65 89 150 153 129 111 92 82 76 67 68 83 85 86 84 99 88 69 69 48 27 10 338 321 327 341 349 348 352 353 349 347 339 318 285 271 266 266 266 265 264 261 261 261 260 261 269 283 290 287 286 285 280 278 278 278 271 268 273 280 282 283 286 289 291 293 294 291 289 289 292 290 286 282 281 282 281 276 271
126 144 113 140 141 131 118 104 120 103 216 167 143 241 231 209 197 130 92 83 116 137 128 114 119 108 82 69 69 80 116 110 102 105 98 86 80 58 38 8 332 335 1 12 9 4 4 359 353 349 345 341 330 313 289 279 274 271 268 263 262 261 261 262 265 276 284 289 293 291 286 283 284 285 277 269 272 276 275 276 279 283 287 289 292 292 290 291 291 289 283 277 276 277 277 275 270
146 161 124 127 101 66 110 125 161 167 202 169 162 202 204 213 172 128 108 90 96 110 117 117 118 107 87 99 75 81 118 123 114 110 110 105 97 84 58 33 9 24 41 41 37 35 30 23 15 6 358 351 344 339 327 310 290 280 275 269 267 263 263 264 265 270 273 279 286 292 292 289 287 285 281 273 272 274 273 275 275 275 278 282 286 288 290 292 292 291 285 276 272 272 271 272 271
151 180 155 132 46 33 97 116 178 172 166 211 201 184 191 193 166 136 106 110 108 108 123 123 112 90 83 145 112 104 120 123 118 118 123 120 117 89 48 39 38 50 58 57 55 52 50 46 41 35 27 20 11 1 351 341 326 306 289 278 272 268 265 264 266 268 270 272 274 280 284 286 286 286 284 276 273 273 272 273 272 271 273 276 278 280 285 289 290 290 286 279 272 270 270 268 269
137 194 194 113 69 48 68 68 153 202 257 259 241 210 161 174 165 128 84 80 118 130 141 145 77 90 121 118 118 123 125 126 128 134 141 144 159 107 57 61 56 64 66 63 60 55 54 50 46 43 39 35 29 23 14 5 356 345 329 307 287 276 270 267 266 266 269 271 272 273 274 278 281 286 289 283 280 277 274 273 271 271 272 273 274 277 280 283 285 285 283 280 274 271 271 269 266
55 61 149 88 80 65 50 32 247 232 262 282 280 263 130 159 141 119 117 98 127 129 150 179 117 130 129 114 123 135 135 138 147 155 165 162 140 112 89 80 67 67 63 58 55 48 48 43 39 36 32 31 27 26 21 17 11 5 358 347 331 308 288 276 271 268 268 270 271 272 273 275 275 280 284 283 285 282 277 275 273 272 273 273 271 275 277 279 279 279 279 277 276 275 273 271 268
352 36 97 80 79 104 166 202 254 261 286 318 320 357 106 133 116 105 116 117 134 124 130 139 123 130 123 115 140 148 150 154 165 169 166 146 123 114 92 81 70 59 51 47 42 38 37 33 30 26 22 19 14 14 12 9 8 5 3 359 355 345 330 307 288 277 271 269 270 273 274 274 274 274 276 277 279 280 277 276 276 275 275 273 269 270 273 276 276 275 276 276 276 276 275 272 270
152 12 74 88 114 171 185 167 198 259 317 337 38 74 111 129 118 117 124 122 141 136 141 156 145 137 114 123 150 155 163 168 179 176 160 143 131 112 91 78 65 53 47 42 35 30 28 24 22 19 17 13 8 5 1 358 354 352 351 349 350 348 346 338 322 303 286 277 272 271 273 273 274 272 272 273 273 273 273 275 277 276 274 272 269 268 268 271 276 275 274 274 274 275 275 271 269
118 150 85 89 138 145 141 138 181 252 339 284 169 94 117 136 129 139 135 123 149 151 177 173 153 141 112 151 154 163 172 178 180 169 158 144 135 115 95 77 62 54 48 40 31 27 24 20 18 15 12 8 5 0 355 352 347 342 338 334 333 332 333 334 331 326 314 301 287 277 273 272 273 273 272 271 271 270 270 272 273 273 271 271 271 268 266 267 272 274 274 274 272 273 274 272 268
101 156 99 110 91 115 136 125 173 138 232 247 210 124 124 131 135 143 135 122 157 143 140 159 156 139 136 149 161 174 174 179 175 163 161 148 145 133 105 81 63 53 44 35 29 27 23 20 16 12 7 2 358 355 350 346 341 334 329 324 321 318 316 316 316 317 317 315 309 299 287 278 275 274 274 272 272 271 269 269 269 269 268 270 271 269 267 265 267 270 273 272 270 270 271 271 270
103 135 97 109 44 77 153 146 157 139 192 237 174 139 119 119 147 154 142 138 163 141 140 159 166 167 170 170 180 179 174 177 173 163 166 159 161 155 137 115 68 53 38 31 27 24 23 20 14 11 6 3 359 356 352 347 342 334 327 321 315 310 306 304 302 302 302 304 305 305 302 295 286 278 275 274 274 274 272 270 268 267 267 267 268 267 266 265 266 266 268 271 269 267 266 267 268
108 117 80 84 69 130 160 154 140 136 213 214 149 142 112 119 161 163 161 155 150 149 156 172 184 231 193 178 171 173 174 174 173 170 172 169 173 172 159 132 56 40 27 23 21 18 18 15 12 12 10 9 6 3 357 352 347 341 335 326 319 312 305 301 297 295 294 293 293 294 296 297 296 291 284 278 275 275 275 274 272 269 267 266 265 264 262 262 263 263 264 267 267 266 264 264 264
117 91 65 75 132 166 174 165 167 166 220 197 164 166 119 134 171 149 150 151 146 154 166 172 190 203 177 169 160 167 173 174 175 176 179 187 193 196 197 184 28 13 11 11 14 12 12 11 11 12 13 12 9 6 1 356 352 346 342 336 329 322 314 309 303 299 296 294 293 291 291 291 292 293 292 288 282 279 277 277 277 275 271 267 265 264 262 260 261 261 262 263 263 263 263 264 263
105 107 78 121 161 174 176 179 191 162 182 187 187 194 155 156 173 147 130 127 130 136 143 145 161 162 161 162 159 168 174 178 182 185 194 207 214 220 226 229 299 333 358 5 7 8 9 10 12 13 14 12 8 5 1 358 354 349 345 341 336 331 325 321 314 311 306 303 301 298 297 295 293 292 292 292 290 287 284 282 280 279 276 272 268 265 263 261 260 260 260 260 260 259 260 263 263
88 108 85 205 197 194 198 181 180 159 175 182 185 195 183 181 171 157 147 129 131 122 122 136 144 148 157 163 164 174 177 181 187 196 208 215 219 223 224 227 291 324 354 7 9 10 10 11 11 12 12 10 7 4 1 358 355 351 348 343 338 335 331 329 325 322 319 315 312 308 306 303 301 298 295 294 292 290 289 287 285 283 280 278 275 269 265 263 260 259 259 259 258 256 257 259 263
88 96 84 236 211 195 230 182 178 182 182 178 173 184 198 188 170 166 164 159 162 158 154 155 158 160 163 167 171 177 178 183 189 197 209 209 211 209 201 200 203 12 16 17 18 16 14 13 11 11 10 8 6 4 0 358 356 352 348 344 340 337 333 330 328 327 326 325 322 318 316 312 310 306 302 299 294 291 288 287 287 286 285 282 281 277 272 268 264 262 261 261 259 258 257 257 262
332 118 149 215 179 164 205 185 185 192 186 190 171 160 188 183 175 173 158 150 238 211 188 186 188 178 172 173 175 179 183 187 190 196 201 199 196 187 178 160 79 35 30 24 21 17 15 14 12 11 9 7 5 3 1 358 356 352 349 347 345 343 340 337 334 332 330 329 327 325 322 319 316 313 310 306 302 298 293 290 288 288 287 286 286 283 280 276 271 267 265 264 263 262 261 260 261
349 195 186 166 151 159 197 179 183 191 189 201 170 152 179 178 185 187 171 171 225 216 205 201 201 190 179 176 177 181 186 191 191 192 192 188 182 171 155 120 69 40 34 26 20 18 17 14 12 12 8 7 5 3 2 359 355 352 349 348 348 348 348 346 343 340 338 335 332 329 325 322 319 317 316 313 310 307 302 298 293 291 289 289 289 288 287 284 281 276 271 268 267 266 266 264 262
346 308 14 153 165 178 186 179 186 193 193 200 185 170 171 166 200 202 191 204 228 228 210 195 192 189 182 179 180 183 187 190 188 186 187 184 180 170 143 112 66 44 35 26 23 18 16 13 10 9 6 5 4 2 359 355 351 348 346 345 346 347 348 347 346 346 345 342 338 334 331 328 324 321 318 316 314 312 309 306 301 297 294 291 290 290 290 288 287 283 278 273 269 269 268 267 265
111 297 2 146 210 206 183 186 195 198 198 203 196 176 172 175 199 200 202 219 241 229 196 187 184 182 181 182 183 185 186 186 184 182 183 182 177 166 135 103 61 44 36 27 22 17 13 10 7 4 4 2 360 357 353 349 346 343 342 342 343 345 345 344 345 346 345 343 341 338 335 332 329 326 323 320 316 313 311 309 306 303 300 296 293 291 290 289 288 286 283 277 272 269 269 269 268
102 285 325 110 243 223 196 203 202 202 205 207 201 192 198 202 194 193 209 222 229 200 185 183 180 179 184 187 185 186 185 183 183 182 181 181 174 160 137 110 68 45 33 26 18 13 9 5 4 1 360 358 355 352 347 344 342 341 339 340 342 342 343 343 344 344 344 343 342 341 338 335 333 331 329 326 321 316 312 309 307 305 302 300 297 294 292 290 288 287 285 281 276 272 268 268 270
19 282 310 313 284 277 213 212 203 202 208 197 192 220 231 202 194 216 216 214 207 191 184 181 180 182 185 188 189 188 188 186 183 182 179 176 169 159 142 114 68 46 28 21 16 9 6 3 0 359 356 354 352 348 344 342 341 340 339 339 341 341 342 342 342 342 342 342 341 341 340 337 335 334 332 329 325 321 316 311 307 305 302 300 298 297 295 293 290 288 287 284 281 276 270 267 269
315 307 305 294 285 293 239 219 216 207 211 202 186 238 239 174 178 242 208 195 189 181 177 180 183 186 186 188 190 189 191 188 183 180 175 169 162 156 146 122 76 53 27 14 13 7 4 1 358 355 352 350 349 346 343 341 340 340 339 339 339 341 342 342 342 342 342 342 342 342 341 340 337 335 333 331 328 324 320 315 310 306 302 298 296 295 296 296 294 291 289 287 284 281 276 270 269
319 325 311 299 311 307 248 224 221 202 210 219 183 22 245 166 214 240 199 184 183 180 177 181 186 188 187 188 189 188 188 186 181 177 173 170 165 159 149 133 102 58 24 10 8 6 1 357 354 351 348 347 345 344 342 340 340 340 339 339 339 340 341 341 342 342 342 342 343 343 342 341 339 337 335 333 330 326 323 320 315 310 305 300 295 292 293 294 295 294 291 288 285 283 280 275 271
326 7 330 307 348 342 268 239 214 194 205 208 156 332 254 205 232 236 198 184 181 182 182 183 187 188 188 188 187 186 185 183 180 178 177 174 171 165 155 140 108 50 16 10 4 1 357 352 349 347 346 344 343 342 341 340 340 340 339 338 337 338 338 338 339 340 341 341 340 340 339 339 338 337 335 334 332 329 326 322 319 314 309 304 296 289 289 291 293 294 294 290 286 283 280 277 274
329 40 33 321 353 343 284 342 192 187 196 173 134 279 253 225 232 226 190 185 179 181 186 187 189 189 190 190 188 186 184 185 182 180 182 180 177 171 161 149 98 35 10 5 360 356 352 349 346 344 343 342 343 342 341 340 339 338 337 336 335 334 334 335 336 337 337 337 337 337 337 337 337 336 335 334 333 331 328 324 321 317 312 306 298 290 286 286 290 293 294 293 290 286 282 279 277
344 5 43 8 352 290 288 337 155 159 205 178 138 260 259 252 246 222 191 190 184 184 190 191 192 193 194 193 190 189 187 187 186 185 187 185 182 177 172 154 68 19 6 358 354 354 350 347 344 342 342 342 343 343 342 340 339 338 336 334 333 332 332 332 332 333 334 334 334 334 335 335 336 336 337 337 335 333 330 325 322 318 313 306 298 293 287 284 285 288 293 294 292 290 287 281 279
21 358 319 341 352 276 303 299 176 171 212 175 150 253 267 271 266 223 195 192 191 191 194 195 196 196 196 196 193 193 190 187 188 190 191 192 191 191 201 211 11 357 355 351 350 352 349 347 344 342 343 343 344 342 342 340 339 338 336 334 332 331 330 329 330 331 332 332 331 331 332 333 334 335 336 336 334 333 331 327 322 317 312 306 297 292 289 287 286 285 288 293 294 292 290 286 281
5 51 259 282 298 299 319 312 210 210 158 176 189 246 272 278 296 211 193 193 195 197 199 199 200 200 198 199 198 195 192 189 189 193 197 197 199 208 232 267 325 336 340 345 350 353 350 348 345 345 345 343 343 342 341 340 338 337 334 332 330 329 328 327 329 330 331 331 331 332 332 332 332 332 333 333 332 332 332 329 324 318 312 306 298 291 287 287 288 288 285 287 293 293 291 290 286
323 15 287 252 249 267 300 311 307 227 168 217 226 241 260 266 312 181 193 196 198 202 207 206 204 203 202 202 201 200 197 195 194 197 201 202 203 214 242 275 301 320 332 343 350 352 351 350 346 346 344 341 342 341 339 338 336 334 332 330 329 328 327 327 328 329 331 331 331 332 332 332 331 331 332 332 332 332 332 330 326 321 314 307 300 293 289 286 286 288 287 285 288 290 291 290 290
238 271 290 286 263 228 244 269 314 24 223 236 223 245 261 270 277 215 201 200 203 209 213 212 209 206 205 204 203 204 202 201 201 202 205 207 207 216 242 269 289 313 330 343 351 353 352 351 349 346 342 340 341 340 338 336 334 333 332 330 329 329 328 328 329 330 330 330 330 331 331 331 330 331 332 332 331 331 330 329 326 321 316 310 301 293 290 289 286 287 289 288 285 284 287 289 290
199 224 222 261 272 260 247 241 265 328 280 257 236 242 264 274 274 242 209 205 209 217 220 217 213 209 208 207 206 206 206 205 204 205 207 208 210 218 239 262 283 307 329 345 353 355 354 352 350 346 341 341 341 338 336 335 333 333 331 330 329 329 328 328 328 329 328 327 328 328 329 330 330 331 333 333 333 331 331 329 326 323 318 312 304 293 286 286 288 288 287 288 285 282 282 285 288
186 206 221 243 244 272 275 254 276 283 236 264 243 237 260 268 273 263 219 210 213 221 225 222 215 213 211 210 209 208 208 208 205 206 209 209 213 218 234 255 273 295 324 347 354 356 354 352 348 344 342 342 340 338 337 336 335 334 333 332 330 329 328 326 325 326 325 325 326 327 328 329 330 331 333 334 335 335 334 331 327 323 319 315 307 298 287 281 282 286 286 286 284 284 282 282 287
200 214 242 266 225 255 279 285 308 305 187 264 251 236 259 259 271 271 218 198 217 220 221 222 217 216 216 213 212 210 209 207 204 207 208 208 212 216 230 248 260 276 320 347 354 357 355 351 347 344 344 342 340 339 338 337 336 335 334 332 329 328 327 326 325 326 327 327 328 329 330 331 332 332 333 334 334 335 334 331 327 321 318 315 309 302 292 280 277 281 286 287 284 283 281 280 285
188 189 218 275 239 263 292 307 332 350 165 268 278 262 264 260 267 270 230 200 226 226 222 224 219 216 216 215 214 210 207 205 204 206 207 208 211 214 228 243 251 265 321 348 352 355 353 350 348 345 343 342 340 339 338 337 335 333 331 328 326 325 325 325 326 328 328 329 330 331 332 333 333 332 332 332 332 332 332 330 326 320 316 314 310 305 296 282 276 277 283 287 285 282 279 277 281
189 180 195 262 263 280 283 298 331 328 250 268 289 279 265 261 261 269 253 224 233 236 230 229 225 221 220 218 216 212 208 205 204 205 206 206 208 212 226 238 244 265 324 346 350 352 350 349 347 345 343 341 340 339 337 336 333 330 327 324 323 322 323 324 325 327 329 329 329 331 332 333 332 330 330 331 330 330 331 330 326 319 313 311 309 304 297 285 276 276 282 284 283 282 278 275 277
242 202 204 242 258 233 233 287 331 324 310 311 321 300 259 240 245 262 276 235 240 243 235 232 230 228 226 223 220 216 211 208 206 204 204 204 205 212 225 231 235 259 319 341 348 349 348 349 346 344 343 341 340 339 336 334 331 327 324 321 320 320 321 323 324 324 326 326 326 327 329 330 330 329 329 329 330 330 330 330 326 319 312 308 307 302 296 287 277 275 280 280 279 280 278 275 274
297 230 211 226 243 247 262 326 348 350 332 352 12 326 270 220 239 259 290 277 253 243 230 232 230 226 226 224 222 217 213 211 210 207 204 204 206 213 222 224 228 254 312 338 346 348 347 348 346 344 342 341 339 338 335 333 330 327 325 324 324 324 324 324 325 324 324 325 325 325 327 328 328 327 326 326 327 328 328 328 325 320 312 307 305 301 294 288 279 273 273 274 275 275 275 273 270
306 249 199 203 210 241 304 5 8 330 275 293 66 322 274 269 223 253 263 266 264 248 229 236 231 224 222 224 223 217 212 210 210 208 205 204 207 213 219 220 223 253 310 335 344 346 346 345 345 343 341 340 339 336 334 332 330 327 326 326 325 325 325 324 325 326 326 325 325 325 325 327 327 325 323 323 324 325 326 326 324 319 313 307 305 302 294 287 279 271 269 270 271 272 273 271 267
245 232 136 122 115 144 169 84 25 240 275 289 169 168 273 278 236 247 258 264 272 265 248 242 229 224 224 224 222 217 213 209 206 204 202 203 208 213 217 218 223 254 309 333 342 343 343 342 343 343 340 338 337 334 333 331 329 327 326 325 324 324 323 323 323 324 325 325 323 323 323 324 325 324 323 322 323 325 325 324 322 318 312 306 304 302 295 288 281 272 266 266 267 267 269 271 268
242 206 120 99 99 129 143 100 266 285 5 292 221 148 260 277 245 266 315 257 266 265 254 248 228 224 226 223 220 218 214 209 206 204 203 204 209 214 217 218 227 259 309 331 337 339 340 340 341 341 338 336 334 332 332 331 329 326 325 324 322 323 323 322 322 322 323 324 323 322 323 323 323 323 322 322 323 325 324 321 319 316 311 306 303 302 296 288 281 273 265 265 267 266 265 269 271
213 139 94 58 64 71 70 76 48 35 351 269 240 153 218 274 227 175 36 237 251 259 255 252 235 228 226 221 219 217 212 208 206 207 206 207 211 214 217 218 231 265 309 328 333 336 338 338 338 339 337 333 332 332 331 329 327 325 324 324 323 323 324 323 322 322 323 324 323 322 322 322 323 323 322 322 323 324 322 319 317 314 310 305 302 302 297 288 282 275 269 269 269 268 268 267 271
120 92 50 18 27 45 44 51 68 47 274 262 236 173 188 277 241 175 186 214 224 243 258 259 242 229 222 219 219 215 210 206 204 205 207 209 211 213 216 219 232 268 308 323 329 334 335 336 336 336 335 333 332 331 330 328 327 326 324 324 324 324 324 324 323 323 324 324 323 322 322 322 322 322 321 321 322 323 320 317 315 312 309 304 301 302 298 288 280 272 267 267 265 266 269 267 268
99 73 47 9 338 13 17 357 47 50 255 265 239 174 187 242 243 204 232 247 223 224 251 255 235 218 213 216 218 213 208 204 202 203 204 205 209 211 213 220 236 267 303 318 326 331 333 334 333 333 334 333 331 330 329 328 326 325 324 323 324 325 324 324 324 323 324 324 323 322 322 322 322 322 321 320 322 322 319 316 313 310 307 303 300 301 298 286 276 267 261 261 265 267 267 265 265
91 89 75 45 336 353 343 309 48 227 247 257 127 142 215 242 245 240 248 259 250 230 234 245 240 217 212 215 216 211 205 202 201 201 202 204 208 211 213 222 238 266 297 314 324 328 331 332 331 331 333 332 330 329 328 327 324 324 324 324 324 324 324 324 323 323 323 323 323 322 321 322 322 321 321 320 321 321 318 315 312 309 306 302 300 299 297 287 278 271 263 261 268 267 261 261 261
148 146 127 127 106 334 277 270 268 267 269 250 133 132 262 271 258 235 232 241 249 248 244 247 249 233 224 221 215 209 203 201 201 201 203 206 209 211 215 224 239 265 294 311 321 326 328 329 329 329 331 331 329 328 327 325 324 324 324 324 324 324 323 323 323 322 322 323 322 321 320 321 321 320 319 319 319 319 316 313 310 308 305 301 299 298 296 288 281 275 266 260 263 262 257 258 259
177 159 136 150 152 181 233 240 245 283 302 272 161 148 246 269 257 219 230 247 253 260 258 254 252 242 235 225 213 205 202 200 201 202 204 207 209 211 216 225 241 263 292 310 318 324 326 327 327 328 329 330 328 328 327 325 325 324 324 324 324 324 324 323 322 322 322 322 321 320 320 320 320 319 318 317 317 316 314 312 309 306 304 301 297 297 295 289 283 277 267 260 260 260 257 258 258
201 130 115 174 183 173 203 232 215 288 318 283 205 209 229 247 261 215 219 268 256 266 271 256 240 230 220 213 206 202 200 199 200 203 204 206 207 211 217 225 241 263 290 307 315 322 324 325 326 327 328 329 329 328 327 326 325 324 323 324 325 324 324 323 321 321 321 321 321 320 319 319 319 318 317 316 315 315 313 310 308 306 303 300 296 295 294 290 285 278 270 264 260 258 259 259 258
165 138 178 215 182 138 146 273 326 71 293 274 262 269 276 311 289 221 163 250 255 271 279 237 217 210 204 206 204 200 199 198 200 202 202 203 205 210 217 226 240 263 289 304 314 320 323 324 324 327 329 329 329 328 326 325 324 324 324 324 325 325 324 323 322 321 321 321 320 320 319 318 319 318 317 315 315 314 313 310 307 305 303 299 295 294 293 290 286 277 270 266 260 258 261 260 257
129 180 214 199 125 98 109 264 339 43 255 271 291 281 281 295 290 276 102 235 252 253 248 222 211 204 205 209 205 201 200 198 200 201 201 204 207 212 217 227 244 265 288 301 313 318 321 324 324 327 329 328 328 327 326 325 324 324 324 325 326 325 324 323 322 321 321 321 320 320 319 318 319 319 317 316 315 314 313 310 306 303 301 298 294 293 291 289 286 278 270 266 263 262 263 260 255
128 182 213 128 137 153 101 152 243 204 241 271 290 293 279 257 247 273 241 205 234 241 213 203 213 209 212 211 204 201 199 197 198 199 201 204 206 212 218 228 247 267 288 300 312 316 319 323 325 327 329 328 328 327 326 326 324 325 325 326 326 326 325 324 322 321 321 320 321 321 320 320 320 319 317 316 314 313 313 311 306 303 300 297 293 291 290 288 286 280 274 269 266 266 264 259 255
88 103 345 35 164 173 163 169 194 174 221 270 302 312 286 253 200 239 230 198 215 223 197 203 215 214 214 208 201 200 198 198 199 199 201 205 207 213 221 231 248 269 288 300 310 315 319 324 325 326 327 326 326 326 326 325 325 326 325 326 326 326 325 324 322 322 321 321 322 322 322 321 320 319 318 316 315 313 312 310 306 301 299 296 292 290 289 287 285 280 274 269 265 265 263 259 254
163 210 227 223 163 125 217 221 163 165 218 256 286 287 277 259 157 210 218 198 210 208 196 208 219 219 216 209 203 202 200 199 200 200 202 204 207 213 221 233 250 268 285 299 308 314 321 324 325 325 326 326 326 326 326 325 326 327 326 326 327 327 325 323 322 322 322 323 324 324 323 322 321 320 318 317 315 312 310 308 305 301 298 294 291 289 288 285 282 279 275 271 266 264 263 259 254
181 197 198 197 181 141 233 254 215 178 220 219 171 267 270 262 143 197 195 188 210 202 194 206 218 219 216 211 209 205 202 201 200 200 202 204 208 214 221 235 250 267 286 300 307 315 321 323 325 326 326 327 327 327 327 327 327 327 327 328 328 327 326 324 323 323 323 325 326 325 325 323 322 321 318 316 313 311 309 306 302 299 296 293 291 290 289 286 282 280 276 272 270 267 265 260 254